OBJECT F, 58922

Orbit data source: Space-Track

You're viewing an Uncataloged Satellite

Recently launched and/or uncataloged satellites may have evolving metadata. Metadata may include but not limited to: Owner, Maufacturer, Bus, Motor, and Mission.

OBJECT F, 58922 is a satellite in SSO that was launched on Sat, 03 Feb 2024 UTC via a JIELONG-3 launch vehicle from the South China Sea Launch Area (SCSLA). Unknown objects in Earth's orbit typically refer to objects detected orbiting the Earth but have not yet been identified or cataloged. These objects could be anything from previously untracked satellites, spent rocket stages, debris from satellite collisions, or even natural meteoroids temporarily captured by Earth's gravity.

Loading next visibility...
Identifier
58922, 2024-024F
Orbit
SSO
Country
Flag of TBDTBD
Related business
None
Manufacturer
Unknown
Mission
Operational Commercial Imaging
Bus & Motor
Unknown
Mass
Unknown
Launch date (UTC)
2024-02-03 (2 years ago)
Launch vehicle
JIELONG-3
Launch site
South China Sea Launch Area (SCSLA)
Object type
Unknown
Shape & HBR
Box + 3 Pan, 0.1 m
Radar Cross Section
0.135 m², Large (>1 m²)

Expand to show TLE details & history
Last TLE update: 22 hours ago

TLE from 22 hours ago
0 OBJECT F
1 58922U 24024F   26172.53869313  .00007408  00000-0  32488-3 0  9991
2 58922  97.3026 236.9892 0012498  34.1528 326.0510 15.22190694131923
Epoch: 2026-06-21T12:55Z
TLE epoch observation values (Epoch: 2026-06-21T12:55:43.086Z)
Latitude
-0.00004°
Longitude
133.32216°
Altitude
495.202 km
Speed
7.621 km/s
True Right ascension
15h 47m 57s
True Declination
0° 00' 00"
Sunlit
Object was in full shadow at epoch
Visualization orbit readout
Latitude
Unknown
Longitude
Unknown
Altitude
Unknown
Speed
Unknown
Apparent Right ascension
Unknown
Apparent Declination
Unknown
Sunlit
N/A
Visualization observer readout
Local Sidereal Time
21:30:41
Azimuth
Unknown
Elevation
Unknown
Doppler factor
Unknown
Orbital elements
Apogee altitude
504.784 km
Perigee altitude
487.601 km
Semi-major axis
6,874.33 km
Eccentricity
0.00125
Inclination
97.3026°
RAAN
236.9892°
Arg. of periapsis
34.1528°
True anomaly
325.97092°
Mean anomaly
326.051°
Eccentric anomaly
326.01097°
Mean motion
3.80801 °/min
Orbital period
94.54 mins
BSTAR
0.00032488
Loading maneuver chart data...
Computing Atmospheric mass density...
Loading historical data...
Loading historical data...
Loading historical data...
Loading historical data...
Loading historical data...
Loading historical data...
Loading historical data...

Documentation

Showing up to 5 results
|